Regional Weather Roundup
Issued by NWS

Home | Current Version | Previous Version | Graphics & Text | Print | Product List | Glossary On
Versions: 1 2 3 4 5 6 7 8 9 10 11 12 13 14 15 16 17 18 19 20 21 22 23 24 25 26 27 28 29 30 31 32 33 34 35 36 37 38 39 40 41 42 43 44 45 46 47 48 49 50
000
ASUS45 KABQ 181501
RWRNM
WEATHER ROUNDUP FOR NEW MEXICO
NATIONAL WEATHER SERVICE ALBUQUERQUE NM
900 AM MDT FRI APR 18 2014

NOTE: "FAIR" MEANS FEW OR NO CLOUDS BELOW 12,000 FEET AGL WITH NO
       SIGNIFICANT WEATHER OR OBSTRUCTIONS TO VISION.

      THIS PRODUCT IS RELEASED AS TWO VERSIONS.  ONE VERSION NEAR
      THE TOP OF THE HOUR CONTAINING PRELIMINARY DATA FROM ALBUQUERQUE
      AND OTHER STATIONS.  A FINAL VERSION WITH ADDITIONAL DATA IS
      ISSUED ABOUT 10 MINUTES AFTER THE HOUR.

NMZ501-503-504-510>518-181600-
NORTHWEST PLATEAU/NORTHCENTRAL MOUNTAINS

CITY           SKY/WX    TMP DP  RH WIND       PRES   REMARKS
FARMINGTON     SUNNY     51  23  33 SE7       30.12S
SANTA FE       MOSUNNY   51  29  42 S7        30.21S
TAOS           SUNNY     46  27  46 CALM      30.25S
ANGEL FIRE     FAIR      40  30  66 CALM      30.27S

$$
NMZ402-403-502-505>509-181600-
WESTCENTRAL MOUNTAINS/SOUTHWEST MOUNTAINS

CITY           SKY/WX    TMP DP  RH WIND       PRES   REMARKS
GALLUP         SUNNY     51  22  31 W9        30.15F
SILVER CITY    PTSUNNY   63  27  25 E8        30.15F

$$
NMZ407-409-411-412-181600-
SOUTHERN DESERTS

CITY           SKY/WX    TMP DP  RH WIND       PRES   REMARKS
LORDSBURG      FAIR      64  28  25 E22G29    30.07R
DEMING         PTSUNNY   61  34  36 E18       30.09F
HOLLOMAN AFB   MOSUNNY   60  29  30 W5        30.15R
T OR C         PTSUNNY   60  24  25 CALM      30.14S

$$
NMZ519>523-181600-
CENTRAL VALLEYS/CENTRAL HIGHLANDS

CITY           SKY/WX    TMP DP  RH WIND       PRES   REMARKS
ALBUQUERQUE    PTSUNNY   53  28  38 N3        30.19R
DOUBLE EAGLE   MOSUNNY   52  28  40 N8        30.20R
CLINES CORNERS MOSUNNY   52  28  39 SW13      30.21S
BELEN          FAIR      53  28  37 N3        30.18S
SOCORRO        NOT AVBL

$$
NMZ524>526-539-540-181600-
SOUTHCENTRAL MOUNTAINS

CITY           SKY/WX    TMP DP  RH WIND       PRES   REMARKS
RUIDOSO        NOT AVBL

$$
NMZ527>531-181600-
NORTHEAST HIGHLANDS/NORTHEAST PLAINS

CITY           SKY/WX    TMP DP  RH WIND       PRES   REMARKS
LAS VEGAS      SUNNY     49  31  49 S21       30.20S
RATON          SUNNY     41  34  76 E3        30.16F
CLAYTON        SUNNY     49  35  58 SW21G28   30.13F

$$
NMZ532>537-181600-
EASTCENTRAL PLAINS

CITY           SKY/WX    TMP DP  RH WIND       PRES   REMARKS
TUCUMCARI      SUNNY     50  38  63 S8        30.18F
CANNON AFB     CLOUDY    43  32  64 SW9       30.23S
CLOVIS AIRPORT PTSUNNY   43  36  75 SW13      30.25S

$$
NMZ028-029-538-181600-
SOUTHEAST PLAINS

CITY           SKY/WX    TMP DP  RH WIND       PRES   REMARKS
ROSWELL        CLOUDY    50  45  83 SE10      30.22S
CARLSBAD       CLOUDY    52  49  89 SE6       30.20S FOG
HOBBS          CLOUDY    48  48 100 SE8       30.24S FOG


$$



USA.gov is the U.S. government's official web portal to all federal, state and local government web resources and services.